Location: Broletto
(44.6000°N, 10.5833°E)
Time: 06:25:47
(UTC+00:00)

RESURS DK-1 - Pass Details

Date: 18 April 2021
Orbit: 554 x 563 km, 69.9° (Epoch: 06 May)

Event Time Altitude Azimuth Distance (km) Brightness Sun altitude
Rises 20:15:42 0° 231° (SW) 2,728 6.0 -20.8°
Reaches altitude 10° 20:18:04 10° 241° (WSW) 1,839 5.2 -21.2°
Maximum altitude 20:21:45 31° 305° (NW) 992 4.3 -21.6°
Drops below altitude 10° 20:25:28 10° 9° (N) 1,856 5.4 -22.1°
Sets 20:27:53 0° 20° (NNE) 2,757 6.2 -22.4°
